• în Republica Moldova
  • Lista ţărilor
  • Pe 7 zile
  • Temperatura apei
  • Hartă satelitară
  • Meteo pe hartă
  • Widget-uri
  • user-avatar
    Intrare

    Meteo pe oră la Jelnica

    Astăzi, 19 Octombrie, Vineri

    Timp Temperatura Precipitaţii Vânt Presiune Umiditate
    00:00 +13°C° 0 mm 1 m/s 750 mmHg 73%
    01:00 +13°C° 0 mm 1 m/s 750 mmHg 73%
    02:00 +12°C° 0 mm 2 m/s 750 mmHg 74%
    03:00 +12°C° 0 mm 2 m/s 750 mmHg 75%
    04:00 +10°C° 0 mm 2 m/s 750 mmHg 76%
    05:00 +10°C° 0 mm 2 m/s 750 mmHg 77%
    06:00 +10°C° 0 mm 2 m/s 751 mmHg 77%
    07:00 +10°C° 0 mm 2 m/s 751 mmHg 77%
    08:00 +10°C° 0 mm 2 m/s 751 mmHg 77%
    09:00 +13°C° 0 mm 2 m/s 751 mmHg 71%
    10:00 +15°C° 0 mm 2 m/s 752 mmHg 64%
    11:00 +16°C° 0 mm 2 m/s 752 mmHg 58%
    12:00 +17°C° 0 mm 2 m/s 752 mmHg 55%
    13:00 +18°C° 0 mm 3 m/s 752 mmHg 53%
    14:00 +19°C° 0 mm 3 m/s 752 mmHg 50%
    15:00 +18°C° 0 mm 3 m/s 752 mmHg 55%
    16:00 +17°C° 0 mm 2 m/s 752 mmHg 59%
    17:00 +16°C° 0 mm 2 m/s 752 mmHg 63%
    18:00 +15°C° 0 mm 2 m/s 752 mmHg 68%
    19:00 +14°C° 0 mm 2 m/s 752 mmHg 73%
    20:00 +13°C° 0 mm 2 m/s 753 mmHg 78%
    21:00 +12°C° 0 mm 2 m/s 753 mmHg 82%
    22:00 +12°C° 0 mm 2 m/s 753 mmHg 85%
    23:00 +10°C° 0 mm 2 m/s 753 mmHg 88%

    Mâine, 20 Octombrie, Sâmbătă

    Timp Temperatura Precipitaţii Vânt Presiune Umiditate
    00:00 +10°C° 0 mm 2 m/s 753 mmHg 90%
    01:00 +10°C° 0 mm 2 m/s 754 mmHg 92%
    02:00 +9°C° 0 mm 2 m/s 754 mmHg 94%
    03:00 +9°C° 0 mm 2 m/s 754 mmHg 95%
    04:00 +8°C° 0 mm 2 m/s 754 mmHg 95%
    05:00 +9°C° 0 mm 1 m/s 754 mmHg 96%
    06:00 +8°C° 0 mm 2 m/s 754 mmHg 96%
    07:00 +8°C° 0 mm 2 m/s 754 mmHg 96%
    08:00 +8°C° 0 mm 2 m/s 754 mmHg 96%
    09:00 +9°C° 0 mm 2 m/s 755 mmHg 86%
    10:00 +10°C° 0 mm 2 m/s 755 mmHg 77%
    11:00 +13°C° 0 mm 2 m/s 755 mmHg 68%
    12:00 +12°C° 0 mm 3 m/s 755 mmHg 62%
    13:00 +13°C° 0 mm 3 m/s 754 mmHg 55%
    14:00 +14°C° 0 mm 4 m/s 754 mmHg 49%
    15:00 +13°C° 0 mm 3 m/s 754 mmHg 51%
    16:00 +12°C° 0 mm 3 m/s 754 mmHg 54%
    17:00 +13°C° 0 mm 2 m/s 754 mmHg 56%
    18:00 +12°C° 0 mm 2 m/s 754 mmHg 58%
    19:00 +12°C° 0 mm 2 m/s 754 mmHg 60%
    20:00 +10°C° 0 mm 2 m/s 754 mmHg 62%
    21:00 +10°C° 0 mm 2 m/s 754 mmHg 63%
    22:00 +10°C° 0 mm 2 m/s 754 mmHg 65%
    23:00 +10°C° 0 mm 2 m/s 754 mmHg 66%

    Poimâine, 21 Octombrie, Duminică

    Timp Temperatura Precipitaţii Vânt Presiune Umiditate
    00:00 +9°C° 0.1 mm 2 m/s 754 mmHg 68%
    01:00 +9°C° 0.1 mm 2 m/s 754 mmHg 70%
    02:00 +9°C° 0.1 mm 3 m/s 754 mmHg 73%
    03:00 +8°C° 0.1 mm 3 m/s 754 mmHg 77%
    04:00 +8°C° 0.1 mm 3 m/s 754 mmHg 81%
    05:00 +8°C° 0.1 mm 3 m/s 753 mmHg 84%
    06:00 +7°C° 0.1 mm 3 m/s 754 mmHg 86%
    07:00 +7°C° 0.1 mm 3 m/s 754 mmHg 88%
    08:00 +7°C° 0.1 mm 2 m/s 754 mmHg 89%
    09:00 +8°C° 0.1 mm 3 m/s 754 mmHg 82%
    10:00 +9°C° 0.1 mm 3 m/s 755 mmHg 76%
    11:00 +10°C° 0.1 mm 3 m/s 755 mmHg 69%
    12:00 +11°C° 0.1 mm 3 m/s 755 mmHg 64%
    13:00 +11°C° 0.1 mm 3 m/s 755 mmHg 60%
    14:00 +12°C° 0.1 mm 3 m/s 755 mmHg 55%
    15:00 +11°C° 0 mm 3 m/s 755 mmHg 57%
    16:00 +10°C° 0 mm 2 m/s 755 mmHg 59%
    17:00 +10°C° 0 mm 2 m/s 755 mmHg 61%
    18:00 +9°C° 0 mm 2 m/s 755 mmHg 63%
    19:00 +8°C° 0 mm 2 m/s 755 mmHg 66%
    20:00 +8°C° 0 mm 1 m/s 756 mmHg 69%
    21:00 +8°C° 0 mm 1 m/s 756 mmHg 71%
    22:00 +7°C° 0 mm 1 m/s 756 mmHg 73%
    23:00 +7°C° 0 mm 1 m/s 756 mmHg 75%

    22 Octombrie, Luni

    Timp Temperatura Precipitaţii Vânt Presiune Umiditate
    00:00 +6°C° 0 mm 1 m/s 756 mmHg 76%
    01:00 +5°C° 0 mm 0 m/s 756 mmHg 78%
    02:00 +5°C° 0 mm 0 m/s 756 mmHg 80%
    03:00 +5°C° 0 mm 0 m/s 756 mmHg 81%
    04:00 +4°C° 0 mm 0 m/s 755 mmHg 82%
    05:00 +5°C° 0 mm 1 m/s 755 mmHg 83%
    06:00 +5°C° 0 mm 1 m/s 755 mmHg 83%
    07:00 +5°C° 0 mm 1 m/s 755 mmHg 82%
    08:00 +5°C° 0 mm 1 m/s 755 mmHg 82%
    09:00 +7°C° 0 mm 1 m/s 755 mmHg 75%
    10:00 +9°C° 0 mm 1 m/s 755 mmHg 68%
    11:00 +9°C° 0 mm 2 m/s 755 mmHg 60%
    12:00 +10°C° 0 mm 2 m/s 755 mmHg 57%
    13:00 +12°C° 0 mm 2 m/s 754 mmHg 54%
    14:00 +13°C° 0 mm 2 m/s 753 mmHg 51%
    15:00 +12°C° 0 mm 2 m/s 753 mmHg 55%
    16:00 +10°C° 0 mm 2 m/s 752 mmHg 59%
    17:00 +9°C° 0 mm 2 m/s 752 mmHg 62%
    18:00 +9°C° 0 mm 2 m/s 752 mmHg 66%
    19:00 +8°C° 0 mm 2 m/s 752 mmHg 70%
    20:00 +7°C° 0 mm 2 m/s 751 mmHg 73%
    21:00 +7°C° 0.1 mm 2 m/s 751 mmHg 77%
    22:00 +7°C° 0.1 mm 2 m/s 751 mmHg 81%
    23:00 +7°C° 0.1 mm 3 m/s 751 mmHg 85%

    23 Octombrie, Marţi

    Timp Temperatura Precipitaţii Vânt Presiune Umiditate
    00:00 +7°C° 0.4 mm 3 m/s 751 mmHg 86%
    01:00 +7°C° 0.4 mm 3 m/s 751 mmHg 87%
    02:00 +7°C° 0.4 mm 3 m/s 750 mmHg 88%
    03:00 +7°C° 0.2 mm 3 m/s 750 mmHg 87%
    04:00 +6°C° 0.2 mm 4 m/s 750 mmHg 86%
    05:00 +5°C° 0.2 mm 4 m/s 750 mmHg 85%
    06:00 +5°C° 0 mm 4 m/s 750 mmHg 85%
    07:00 +5°C° 0 mm 3 m/s 750 mmHg 85%
    08:00 +4°C° 0 mm 3 m/s 750 mmHg 86%
    09:00 +7°C° 0 mm 3 m/s 750 mmHg 80%
    10:00 +7°C° 0 mm 4 m/s 750 mmHg 74%
    11:00 +8°C° 0 mm 4 m/s 750 mmHg 68%
    12:00 +8°C° 0 mm 4 m/s 750 mmHg 65%
    13:00 +10°C° 0 mm 4 m/s 749 mmHg 61%
    14:00 +9°C° 0 mm 5 m/s 749 mmHg 57%
    15:00 +10°C° 0 mm 4 m/s 749 mmHg 59%
    16:00 +8°C° 0 mm 4 m/s 749 mmHg 61%
    17:00 +8°C° 0 mm 4 m/s 748 mmHg 62%
    18:00 +7°C° 0 mm 4 m/s 748 mmHg 65%
    19:00 +7°C° 0 mm 4 m/s 748 mmHg 68%
    20:00 +6°C° 0 mm 4 m/s 748 mmHg 71%
    21:00 +6°C° 0 mm 4 m/s 748 mmHg 74%
    22:00 +6°C° 0 mm 5 m/s 747 mmHg 76%
    23:00 +6°C° 0 mm 5 m/s 747 mmHg 79%

    24 Octombrie, Miercuri

    Timp Temperatura Precipitaţii Vânt Presiune Umiditate
    00:00 +5°C° 0 mm 5 m/s 747 mmHg 83%
    01:00 +5°C° 0 mm 4 m/s 746 mmHg 87%
    02:00 +5°C° 0 mm 4 m/s 746 mmHg 91%
    03:00 +5°C° 0 mm 5 m/s 745 mmHg 89%
    04:00 +5°C° 0 mm 5 m/s 744 mmHg 88%
    05:00 +4°C° 0 mm 6 m/s 743 mmHg 86%
    06:00 +5°C° 0.6 mm 7 m/s 741 mmHg 85%
    07:00 +5°C° 0.6 mm 8 m/s 740 mmHg 85%
    08:00 +6°C° 0.6 mm 9 m/s 739 mmHg 84%
    09:00 +6°C° 1.1 mm 9 m/s 738 mmHg 85%
    10:00 +7°C° 1.1 mm 9 m/s 737 mmHg 86%
    11:00 +8°C° 1.1 mm 9 m/s 736 mmHg 87%
    12:00 +10°C° 0.5 mm 9 m/s 735 mmHg 84%
    13:00 +10°C° 0.5 mm 9 m/s 735 mmHg 82%
    14:00 +11°C° 0.5 mm 9 m/s 734 mmHg 79%
    15:00 +10°C° 0.3 mm 8 m/s 735 mmHg 78%
    16:00 +10°C° 0.3 mm 7 m/s 735 mmHg 76%
    17:00 +9°C° 0.3 mm 7 m/s 735 mmHg 75%
    18:00 +9°C° 0.1 mm 7 m/s 735 mmHg 71%
    19:00 +8°C° 0.1 mm 7 m/s 736 mmHg 68%
    20:00 +6°C° 0.1 mm 7 m/s 736 mmHg 65%
    21:00 +6°C° 0 mm 7 m/s 736 mmHg 64%
    22:00 +6°C° 0 mm 8 m/s 737 mmHg 63%
    23:00 +5°C° 0 mm 8 m/s 737 mmHg 62%
    Arată mai mult